NSS 10 (AMC-12)

导读 | 星芒AI

NSS 10(也称为 AMC-12)是一颗由波音卫星系统制造的通信卫星,于2002年11月20日由Space Shuttle Columbia通过PAM-D上面级发射升空。该卫星由美洲通信公司(AMC)运营,后被SES收购。NSS 10位于西经105度轨道位置,提供跨北美和加勒比地区的C波段和Ku波段广播和通信服务。卫星设计寿命为15年,广泛用于电视广播、企业网络和政府通信。

基本信息
目录编号:
28526
目录名称:
NSS 10 (AMC-12)
国际标识:
2005-003A
轨道中心:
EARTH
卫星名称:
NSS 10 (AMC-12)
卫星全名:
--
卫星状态:
在轨 (已飞行7698 天)
发射日期:
2005-02-03 UTC
国别 :
(SES)
星等 :
--
轨道信息
数据来源 国际轨道数据 AOE轨道数据
星历时间 2026-03-02T16:48:06+0800
16小时前
查看轨道信息
2026-03-02T06:00:00+0800
1天前
查看轨道信息
半长轴 42164.784km 42165.009km
偏心率 0.0003244 0.0003211
轨道倾角 6.183° 6.182°
近地点辐角 271.710° 272.934°
升交点赤经 71.745° 71.750°
平近点角 271.256° 107.556°
近地点 35772.968km 35773.332km
远地点 35800.326km 35800.412km
周期 1436.100分钟 1436.111分钟
每日圈数 1.002716 1.002708
详细信息
使用方式:
暂无
2D轨道图
3D轨道图
轨道高度分析图
轨道倾角分析图
轨道综合分析图
查看轨道综合分析图